DW9439 Weather Reports


Display with metric or nautical units.
time (UTC)temp
F
wind
direction
speed
MPH
gust
MPH
rain 1hr
in
rain 24hr
in
rain mn
in
humidity
%
barometer
mb
20260504042324 52 28 0.0 1.0 0.00 0.00 0.00 45 1014.3
20260504042019 52 28 1.0 1.0 0.00 0.00 0.00 44 1014.3
20260504041708 52 28 1.0 3.0 0.00 0.00 0.00 44 1014.3
20260504041356 53 28 1.0 3.0 0.00 0.00 0.00 44 1014.3
20260504041055 53 28 1.0 3.0 0.00 0.00 0.00 44 1014.3
20260504040746 53 28 1.0 3.0 0.00 0.00 0.00 44 1014.4
20260504040023 53 28 1.0 3.0 0.00 0.00 0.00 44 1014.4
20260504035712 53 28 1.0 2.0 0.00 0.00 0.00 43 1014.3
20260504035359 53 28 0.0 1.0 0.00 0.00 0.00 43 1014.3
20260504035059 53 28 0.0 1.0 0.00 0.00 0.00 43 1014.3
20260504034803 53 28 0.0 1.0 0.00 0.00 0.00 42 1014.3
20260504033207 54 28 0.0 0.0 0.00 0.00 0.00 40 1014.4
20260504032909 54 28 0.0 0.0 0.00 0.00 0.00 39 1014.4
20260504032603 55 28 0.0 0.0 0.00 0.00 0.00 39 1014.4
20260504032304 56 28 0.0 1.0 0.00 0.00 0.00 38 1014.4
20260504032007 56 28 0.0 1.0 0.00 0.00 0.00 38 1014.4
20260504031700 57 28 0.0 3.0 0.00 0.00 0.00 37 1014.4
20260504031347 58 28 0.0 3.0 0.00 0.00 0.00 36 1014.4
20260504031035 58 28 0.0 3.0 0.00 0.00 0.00 36 1014.3
20260504030304 58 28 0.0 3.0 0.00 0.00 0.00 36 1014.3
20260504025953 58 28 0.0 3.0 0.00 0.00 0.00 36 1014.3
20260504025646 58 28 0.0 1.0 0.00 0.00 0.00 37 1014.2
20260504025335 58 28 0.0 1.0 0.00 0.00 0.00 37 1014.2
20260504025029 58 28 0.0 1.0 0.00 0.00 0.00 37 1014.2
20260504024724 58 28 0.0 1.0 0.00 0.00 0.00 37 1014.2
20260504024421 59 28 0.0 1.0 0.00 0.00 0.00 36 1014.2
20260504024125 59 28 0.0 1.0 0.00 0.00 0.00 36 1014.2
20260504023827 59 28 0.0 2.0 0.00 0.00 0.00 36 1014.1
20260504023521 59 28 0.0 2.0 0.00 0.00 0.00 36 1014.1
20260504022756 60 28 1.0 3.0 0.00 0.00 0.00 35 1014.1
20260504022452 60 28 1.0 3.0 0.00 0.00 0.00 35 1014.1
20260504022139 60 28 1.0 3.0 0.00 0.00 0.00 35 1014.0
20260504021418 61 28 1.0 3.0 0.00 0.00 0.00 34 1014.0
20260504021107 62 28 1.0 3.0 0.00 0.00 0.00 33 1014.0
20260504020333 63 28 2.0 3.0 0.00 0.00 0.00 32 1014.0
20260504020021 63 28 2.0 3.0 0.00 0.00 0.00 32 1013.9
20260504015725 63 28 2.0 3.0 0.00 0.00 0.00 31 1013.9
20260504015425 64 28 2.0 3.0 0.00 0.00 0.00 31 1013.9
20260504015117 64 28 1.0 3.0 0.00 0.00 0.00 30 1013.9
20260504014804 64 28 1.0 3.0 0.00 0.00 0.00 30 1013.9
20260504014027 65 28 1.0 3.0 0.00 0.00 0.00 29 1013.9
20260504013722 66 28 1.0 3.0 0.00 0.00 0.00 29 1013.9
20260504013412 66 28 1.0 3.0 0.00 0.00 0.00 28 1013.9
20260504012642 68 28 1.0 3.0 0.00 0.00 0.00 28 1013.9
20260504012344 68 28 1.0 3.0 0.00 0.00 0.00 27 1013.9
20260504011625 70 28 0.0 1.0 0.00 0.00 0.00 26 1014.0
20260504010847 71 28 1.0 2.0 0.00 0.00 0.00 25 1014.0
20260504010536 72 28 1.0 2.0 0.00 0.00 0.00 25 1014.0
20260504010235 72 28 1.0 2.0 0.00 0.00 0.00 24 1014.0
20260504005925 73 28 1.0 2.0 0.00 0.00 0.00 24 1014.0
20260504005612 74 28 1.0 2.0 0.00 0.00 0.00 23 1014.0
20260504005311 74 28 1.0 5.0 0.00 0.00 0.00 23 1014.0
20260504004958 75 28 1.0 5.0 0.00 0.00 0.00 22 1014.0
20260504004648 75 28 2.0 5.0 0.00 0.00 0.00 22 1014.1
20260504004346 76 28 2.0 6.0 0.00 0.00 0.00 20 1014.1
20260504004036 77 28 2.0 6.0 0.00 0.00 0.00 20 1014.2
20260504003737 77 28 3.0 6.0 0.00 0.00 0.00 19 1014.1
20260504003424 78 28 3.0 9.0 0.00 0.00 0.00 19 1014.1
20260504003123 78 28 4.0 9.0 0.00 0.00 0.00 19 1014.1
20260504002354 79 28 5.0 9.0 0.00 0.00 0.00 17 1014.3
20260504001639 79 26 5.0 9.0 0.00 0.00 0.00 18 1014.3
20260504001332 79 25 5.0 8.0 0.00 0.00 0.00 19 1014.3
20260504001030 79 24 5.0 9.0 0.00 0.00 0.00 19 1014.3
20260504000722 79 24 4.0 9.0 0.00 0.00 0.00 18 1014.3
20260504000425 79 24 4.0 9.0 0.00 0.00 0.00 18 1014.4
20260504000128 80 24 4.0 9.0 0.00 0.00 0.00 18 1014.3
20260503235409 81 24 6.0 15.0 0.00 0.00 0.00 16 1014.4
20260503235112 81 24 6.0 15.0 0.00 0.00 0.00 16 1014.4
20260503234802 81 24 8.0 15.0 0.00 0.00 0.00 17 1014.4
20260503234504 81 24 7.0 15.0 0.00 0.00 0.00 17 1014.4
20260503234151 81 24 7.0 15.0 0.00 0.00 0.00 17 1014.5
20260503233847 81 28 6.0 13.0 0.00 0.00 0.00 18 1014.5
20260503233547 80 28 6.0 13.0 0.00 0.00 0.00 18 1014.5
20260503232831 79 24 4.0 7.0 0.00 0.00 0.00 18 1014.4
20260503232529 79 24 5.0 12.0 0.00 0.00 0.00 18 1014.5
20260503232223 79 24 5.0 12.0 0.00 0.00 0.00 18 1014.5
20260503231913 79 24 6.0 12.0 0.00 0.00 0.00 17 1014.5
20260503231138 80 27 8.0 13.0 0.00 0.00 0.00 17 1014.5
20260503230832 80 32 8.0 13.0 0.00 0.00 0.00 17 1014.5
20260503230520 80 29 8.0 17.0 0.00 0.00 0.00 17 1014.5
20260503230216 80 22 7.0 17.0 0.00 0.00 0.00 17 1014.5
20260503225917 81 24 7.0 17.0 0.00 0.00 0.00 17 1014.5
20260503225615 81 19 9.0 17.0 0.00 0.00 0.00 17 1014.5
20260503225319 81 11 9.0 17.0 0.00 0.00 0.00 17 1014.6
20260503225004 81 9 8.0 17.0 0.00 0.00 0.00 18 1014.5
20260503224658 81 36 6.0 12.0 0.00 0.00 0.00 18 1014.6
20260503224357 81 40 5.0 10.0 0.00 0.00 0.00 17 1014.6
20260503224056 81 31 5.0 9.0 0.00 0.00 0.00 17 1014.7
20260503223758 81 28 5.0 9.0 0.00 0.00 0.00 18 1014.6
20260503223501 81 28 6.0 9.0 0.00 0.00 0.00 18 1014.6
20260503223154 81 28 6.0 12.0 0.00 0.00 0.00 17 1014.8
20260503222840 81 28 7.0 12.0 0.00 0.00 0.00 17 1014.8
20260503222532 81 28 7.0 12.0 0.00 0.00 0.00 17 1014.8
20260503222227 81 29 7.0 13.0 0.00 0.00 0.00 17 1014.9
20260503221928 81 28 8.0 13.0 0.00 0.00 0.00 17 1015.0
20260503221631 81 30 8.0 13.0 0.00 0.00 0.00 17 1015.0
20260503221320 82 31 8.0 13.0 0.00 0.00 0.00 16 1015.1
20260503221015 82 32 8.0 13.0 0.00 0.00 0.00 17 1015.2
20260503220706 81 36 8.0 13.0 0.00 0.00 0.00 17 1015.2
20260503220358 81 32 8.0 13.0 0.00 0.00 0.00 17 1015.2
20260503220050 81 30 8.0 14.0 0.00 0.00 0.00 18 1015.3
20260503215738 81 28 8.0 14.0 0.00 0.00 0.00 18 1015.3
20260503215430 80 22 9.0 14.0 0.00 0.00 0.00 18 1015.3
20260503215117 80 21 9.0 14.0 0.00 0.00 0.00 18 1015.3
20260503214821 80 21 9.0 14.0 0.00 0.00 0.00 17 1015.4
20260503214510 80 28 8.0 14.0 0.00 0.00 0.00 17 1015.4
20260503214206 80 28 7.0 14.0 0.00 0.00 0.00 18 1015.4
20260503213431 80 26 7.0 15.0 0.00 0.00 0.00 18 1015.5
20260503212700 80 33 7.0 15.0 0.00 0.00 0.00 18 1015.5
20260503212354 80 36 8.0 21.0 0.00 0.00 0.00 18 1015.7
20260503212045 80 33 10.0 21.0 0.00 0.00 0.00 18 1015.6
20260503211734 80 20 11.0 21.0 0.00 0.00 0.00 18 1015.7
20260503211426 81 13 12.0 21.0 0.00 0.00 0.00 18 1015.7
20260503211122 81 15 12.0 21.0 0.00 0.00 0.00 17 1015.8
20260503210820 81 14 11.0 21.0 0.00 0.00 0.00 17 1015.9
20260503210512 82 32 10.0 19.0 0.00 0.00 0.00 17 1015.9
20260503210159 82 30 10.0 19.0 0.00 0.00 0.00 18 1016.0
20260503205432 81 30 8.0 18.0 0.00 0.00 0.00 17 1016.0
20260503205120 81 23 6.0 18.0 0.00 0.00 0.00 17 1016.1
20260503204822 81 320 6.0 18.0 0.00 0.00 0.00 16 1015.8
20260503204515 81 0 4.0 10.0 0.00 0.00 0.00 17 1016.1
20260503204216 81 0 4.0 10.0 0.00 0.00 0.00 17 1016.1
20260503203448 81 0 4.0 14.0 0.00 0.00 0.00 17 1016.2
20260503203137 81 0 4.0 14.0 0.00 0.00 0.00 17 1016.3
20260503202832 81 0 5.0 14.0 0.00 0.00 0.00 17 1016.4
20260503202524 81 0 6.0 14.0 0.00 0.00 0.00 17 1016.5
20260503202210 82 0 5.0 14.0 0.00 0.00 0.00 16 1016.5
20260503200612 82 335 5.0 11.0 0.00 0.00 0.00 15 1016.8
20260503200301 83 10 5.0 11.0 0.00 0.00 0.00 16 1017.0
20260503200005 83 11 5.0 11.0 0.00 0.00 0.00 16 1017.0
20260503195709 83 284 5.0 11.0 0.00 0.00 0.00 15 1016.9
20260503194937 83 263 9.0 20.0 0.00 0.00 0.00 15 1017.0
20260503194630 84 263 10.0 20.0 0.00 0.00 0.00 14 1017.1
20260503194321 84 281 8.0 20.0 0.00 0.00 0.00 14 1017.0
20260503194016 84 327 6.0 20.0 0.00 0.00 0.00 16 1017.2
20260503193710 84 9 6.0 20.0 0.00 0.00 0.00 16 1017.0
20260503193409 84 345 7.0 15.0 0.00 0.00 0.00 15 1017.1
20260503193102 84 345 8.0 15.0 0.00 0.00 0.00 15 1017.3
20260503192802 83 297 8.0 15.0 0.00 0.00 0.00 15 1017.4
20260503192504 84 313 7.0 15.0 0.00 0.00 0.00 16 1017.3
20260503192205 83 355 5.0 14.0 0.00 0.00 0.00 16 1017.3
20260503191900 83 269 4.0 14.0 0.00 0.00 0.00 16 1017.3
20260503191552 83 13 4.0 17.0 0.00 0.00 0.00 17 1017.5
20260503190405 83 346 8.0 17.0 0.00 0.00 0.00 16 1017.6
20260503190057 83 348 8.0 17.0 0.00 0.00 0.00 17 1017.7
20260503185756 83 336 6.0 13.0 0.00 0.00 0.00 18 1017.8
20260503185445 82 340 6.0 13.0 0.00 0.00 0.00 17 1017.8
20260503185134 82 296 5.0 11.0 0.00 0.00 0.00 17 1018.0
20260503184833 82 296 5.0 11.0 0.00 0.00 0.00 16 1018.0
20260503184524 82 311 6.0 14.0 0.00 0.00 0.00 16 1018.0
20260503184223 82 19 8.0 14.0 0.00 0.00 0.00 16 1018.1
20260503183926 82 321 8.0 14.0 0.00 0.00 0.00 17 1018.1
20260503183615 82 292 8.0 15.0 0.00 0.00 0.00 17 1018.2
20260503183316 82 294 7.0 15.0 0.00 0.00 0.00 18 1018.2
20260503183002 82 295 8.0 15.0 0.00 0.00 0.00 17 1018.4
20260503182649 81 234 9.0 19.0 0.00 0.00 0.00 19 1018.5
20260503181916 81 259 11.0 19.0 0.00 0.00 0.00 19 1018.8
20260503181607 81 251 10.0 19.0 0.00 0.00 0.00 19 1018.8
20260503181256 81 236 11.0 19.0 0.00 0.00 0.00 20 1019.0
20260503180944 80 242 10.0 19.0 0.00 0.00 0.00 20 1019.2
20260503180230 79 273 11.0 18.0 0.00 0.00 0.00 21 1019.3
20260503175922 79 270 10.0 18.0 0.00 0.00 0.00 19 1019.4
20260503175623 80 277 10.0 18.0 0.00 0.00 0.00 19 1019.5
20260503175316 80 286 10.0 15.0 0.00 0.00 0.00 20 1019.5
20260503174607 79 266 9.0 20.0 0.00 0.00 0.00 23 1019.7
20260503174304 78 254 10.0 20.0 0.00 0.00 0.00 23 1019.7
20260503173542 78 267 12.0 20.0 0.00 0.00 0.00 21 1020.0
20260503173233 79 271 12.0 20.0 0.00 0.00 0.00 22 1020.0
20260503172922 79 275 12.0 20.0 0.00 0.00 0.00 21 1020.2
20260503172615 78 258 12.0 23.0 0.00 0.00 0.00 22 1020.2
20260503172309 79 250 12.0 23.0 0.00 0.00 0.00 22 1020.3
20260503172009 79 275 12.0 23.0 0.00 0.00 0.00 23 1020.4
20260503171706 78 248 12.0 23.0 0.00 0.00 0.00 22 1020.4
20260503171404 79 262 13.0 23.0 0.00 0.00 0.00 22 1020.5
20260503170645 78 246 12.0 20.0 0.00 0.00 0.00 20 1020.6
20260503170337 78 238 12.0 20.0 0.00 0.00 0.00 20 1020.7
20260503150851 69 265 9.0 15.0 0.00 0.00 0.00 33 1022.3
20260503150550 68 267 10.0 15.0 0.00 0.00 0.00 33 1022.3
20260503150254 67 271 10.0 15.0 0.00 0.00 0.00 36 1022.4
20260503131332 48 222 5.0 7.0 0.00 0.00 0.00 69 1023.3
20260503131023 47 222 5.0 7.0 0.00 0.00 0.00 71 1023.3
20260503130726 46 222 5.0 7.0 0.00 0.00 0.00 71 1023.2
20260503130421 45 222 5.0 7.0 0.00 0.00 0.00 72 1023.2
20260503110551 32 222 2.0 4.0 0.00 0.00 0.00 81 1023.4
20260503110243 32 222 2.0 4.0 0.00 0.00 0.00 81 1023.5
20260503100156 33 222 2.0 3.0 0.00 0.00 0.00 76 1024.0
20260503090235 36 222 2.0 3.0 0.00 0.00 0.00 68 1024.1
20260503081332 42 222 5.0 8.0 0.00 0.00 0.00 61 1024.4
20260503081026 43 222 6.0 11.0 0.00 0.00 0.00 61 1024.4
20260503080725 43 222 7.0 11.0 0.00 0.00 0.00 61 1024.3
20260503080421 43 222 8.0 11.0 0.00 0.00 0.00 62 1024.1
20260503080111 43 222 8.0 11.0 0.00 0.00 0.00 62 1024.0
20260503072717 44 223 7.0 11.0 0.00 0.00 0.00 58 1024.7
20260503072412 45 223 8.0 11.0 0.00 0.00 0.00 58 1024.7
20260503072105 45 223 8.0 11.0 0.00 0.00 0.00 58 1024.9
20260503071801 45 223 7.0 9.0 0.00 0.00 0.00 58 1024.9
20260503071449 45 223 7.0 10.0 0.00 0.00 0.00 57 1024.9
20260503071149 45 223 7.0 10.0 0.00 0.00 0.00 57 1025.1
20260503070845 46 223 7.0 10.0 0.00 0.00 0.00 56 1025.2
20260503060146 49 226 9.0 13.0 0.00 0.00 0.00 52 1025.6
20260503055115 49 233 8.0 11.0 0.00 0.00 0.00 50 1025.6
20260503054815 50 233 8.0 11.0 0.00 0.00 0.00 49 1025.6
20260503054514 50 234 8.0 11.0 0.00 0.00 0.00 49 1025.7
20260503054203 51 235 8.0 11.0 0.00 0.00 0.00 48 1025.7
20260503053857 51 236 9.0 11.0 0.00 0.00 0.00 48 1025.6
20260503053547 51 237 8.0 11.0 0.00 0.00 0.00 48 1025.7
20260503053244 51 239 8.0 11.0 0.00 0.00 0.00 48 1025.7
20260503052940 50 240 8.0 11.0 0.00 0.00 0.00 48 1025.7
20260503052633 50 241 8.0 11.0 0.00 0.00 0.00 49 1025.7
20260503052324 50 242 7.0 10.0 0.00 0.00 0.00 50 1025.6
20260503051600 49 243 7.0 9.0 0.00 0.00 0.00 51 1025.9
20260503051304 49 243 6.0 8.0 0.00 0.00 0.00 51 1025.8
20260503050951 49 243 6.0 9.0 0.00 0.00 0.00 50 1025.8
20260503050643 50 243 6.0 9.0 0.00 0.00 0.00 49 1025.8
20260503050346 50 243 6.0 9.0 0.00 0.00 0.00 48 1025.9
20260503045631 50 243 7.0 9.0 0.00 0.00 0.00 48 1025.7
20260503044909 50 243 7.0 9.0 0.00 0.00 0.00 48 1025.8
20260503044608 50 244 7.0 9.0 0.00 0.00 0.00 48 1025.8
20260503044308 50 244 6.0 9.0 0.00 0.00 0.00 47 1025.8
20260503044000 50 244 6.0 8.0 0.00 0.00 0.00 47 1025.8
20260503043245 49 244 5.0 8.0 0.00 0.00 0.00 47 1025.8
20260503042944 49 244 6.0 8.0 0.00 0.00 0.00 47 1025.7
20260503042647 49 244 6.0 8.0 0.00 0.00 0.00 46 1025.7